Regional Weather Roundup
Issued by NWS

Home | Current Version | Previous Version | Graphics & Text | Print | Product List | Glossary On
Versions: 1 2 3 4 5 6 7 8 9 10 11 12 13 14 15 16 17 18 19 20 21 22 23 24 25 26 27 28 29 30 31 32 33 34 35 36 37 38 39 40 41 42 43 44 45 46 47 48 49 50
000
ASUS43 KLOT 170306
RWRIL

ILLINOIS REGIONAL WEATHER ROUNDUP
NATIONAL WEATHER SERVICE CHICAGO/ROMEOVILLE IL
1000 PM CDT WED APR 16 2014

NOTE: "FAIR" INDICATES FEW OR NO CLOUDS BELOW 12,000 FEET WITH NO
SIGNIFICANT WEATHER AND/OR OBSTRUCTIONS TO VISIBILITY.

* THESE STATIONS ARE NOT UNDER NWS QUALITY CONTROL. THEY ALSO MAY NOT
  REPORT WEATHER SUCH AS PRECIPITATION OR FOG.

ILZ001-002-007-009-015-016-024-170400-
NORTHWEST ILLINOIS

CITY           SKY/WX    TMP DP  RH WIND       PRES   REMARKS
MOLINE         CLOUDY    49  27  42 SE16G28   30.02S
STERLING*      CLOUDY    46  28  49 SE9       30.08F
SAVANNA*       CLOUDY    48  29  47 SE15      30.04S
$$

ILZ003-004-008-010-011-017-018-170400-
NORTH CENTRAL ILLINOIS

CITY           SKY/WX    TMP DP  RH WIND       PRES   REMARKS
ROCKFORD       CLOUDY    45  28  51 S14       30.12F
FREEPORT*      CLOUDY    46  31  54 SE20G25   30.08F
ROCHELLE*      CLOUDY    43  31  62 S13       30.12F
DE KALB*       MOCLDY    40  29  63 S10       30.15R
$$

ILZ005-006-012>014-019>023-170400-
NORTHEAST ILLINOIS

CITY           SKY/WX    TMP DP  RH WIND       PRES   REMARKS
CHICAGO-OHARE  MOCLDY    47  23  38 SE22G31   30.13S
CHICAGO-MIDWAY MOCLDY    47  24  40 SE20      30.15F
AURORA         PTCLDY    44  26  49 S12       30.15R
LANSING*       PTCLDY    44  23  43 SE15      30.17S
WAUKEGAN       CLOUDY    41  28  60 SE16G22   30.13R
DUPAGE AIRPORT PTCLDY    46  24  42 SE15G24   30.13R
KANKAKEE*      PTCLDY    44  27  51 SE14      30.16S
WHEELING       MOCLDY    47  24  40 SE15G29   30.14S
MORRIS*        PTCLDY    46  23  40 SE12      30.14R
NORTHERLY ISL    N/A     45  32  60 SE20        N/A
$$

LMZ740>746-170400-
SOUTHERN LAKE MICHIGAN

STATION/POSITION SKY/WX   TEMP    WIND        PRES    VSBY  WAVE
                          AIR SEA DIR/SP/G                  HT/PER
                          (F)     (DEG/KT/KT) (MB)    (MI)  (FT/S)
WAUKEGAN HARBOR            40     140/ 19/ 21 1021.7R
HARRISON CRIB              44     140/ 22/ 26   N/A
BURNHAM HARBOR             45     130/ 15/ 19   N/A
CALUMET HARBOR             47     130/ 12/ 19 1022.0R
MICHIGAN CITY              45     120/ 15/ 22   N/A
$$

ILZ025>027-034>036-040-047-049-050-058-095>099-170400-
WEST-CENTRAL ILLINOIS

CITY           SKY/WX    TMP DP  RH WIND       PRES   REMARKS
QUINCY         PTCLDY    49  27  42 SE13      30.03R
GALESBURG*     CLOUDY    48  30  49 SE12G18   30.04S
MACOMB*        CLOUDY    47  32  56 SE16      30.07S
JACKSONVILLE*  MOCLDY    46  31  54 SE9       30.11S
PITTSFIELD*    CLEAR     48  27  43 SE12      30.08R
$$

ILZ028>032-037-038-041>044-048-051>054-059>061-170400-
CENTRAL ILLINOIS

CITY           SKY/WX    TMP DP  RH WIND       PRES   REMARKS
PONTIAC        CLEAR     45  30  57 S9        30.15R
BLOOMINGTON    CLEAR     41  28  60 S10       30.15R
DECATUR        PTCLDY    46  29  51 S12       30.14R
PEORIA         PTCLDY    48  27  44 S15       30.11S
LACON*         MOCLDY    46  29  51 SE14      30.11S
LINCOLN*       PTCLDY    45  31  58 S6        30.15R
SPRINGFIELD    PTCLDY    47  28  47 S13       30.14R
TAYLORVILLE    PTCLDY    45  30  57 S10       30.13R
$$

ILZ033-039-045-046-055>057-062-063-170400-
EAST-CENTRAL ILLINOIS

CITY           SKY/WX    TMP DP  RH WIND       PRES   REMARKS
CHAMPAIGN      PTCLDY    41  30  65 SE12      30.14S
RANTOUL*       MOCLDY    44  29  57 SE9       30.15F
MATTOON        CLEAR     45  26  47 SE13      30.14S
PARIS*         CLEAR     44  29  55 SE10      30.17F
$$

ILZ079-100>102-170400-
SOUTHWEST ILLINOIS

CITY           SKY/WX    TMP DP  RH WIND       PRES   REMARKS
ALTON          CLEAR     46  25  42 S7        30.14R
BELLEVILLE     CLEAR     45  30  55 S5        30.12R
CAHOKIA*       FAIR      49  29  46 S5        30.14R
SPARTA*        CLEAR     45  30  57 SE6       30.13S
$$

ILZ064>066-069>071-074>076-080>082-084>086-088>090-092>094-170400-
SOUTH-CENTRAL ILLINOIS

CITY           SKY/WX    TMP DP  RH WIND       PRES   REMARKS
CARBONDALE     CLEAR     47  29  49 SE7       30.15R
CAIRO*         CLEAR     48  37  66 CALM      30.16S
MARION         CLEAR     48  30  49 SE7       30.16S
MT. VERNON     CLEAR     48  27  43 SE8       30.16S
CENTRALIA*       N/A     46  30  52 SE9       30.13S
SALEM*         CLEAR     49  32  51 SE7       30.15R
METROPOLIS*    CLEAR     45  32  60 CALM      30.17R
$$

ILZ067-068-072-073-078-083-087-091-170400-
SOUTHEAST ILLINOIS

CITY           SKY/WX    TMP DP  RH WIND       PRES   REMARKS
FAIRFIELD*     CLEAR     46  34  61 SE7       30.17S
HARRISBURG*    CLEAR     46  32  59 SE7       30.19S
ROBINSON*      CLEAR     45  32  60 SE8       30.20F
CARMI*         CLEAR     47  36  65 SE9       30.19R
$$

ABBREVIATIONS USED IN REMARKS
   TC - TEMPERATURE IN CELSIUS
  WCI - WIND CHILL INDEX
   HX - HEAT INDEX
  VSB - VISIBILITY
$$




USA.gov is the U.S. government's official web portal to all federal, state and local government web resources and services.